When you browse on this site, cookies collect data to enhance your experience and personalize the content and advertising you see.
Visit our Privacy Policy to learn more. By continuing to use the site, you agree to this use of cookies and data.
  • In Hungary
  • List of Countries
  • For 7 days
  • Water Temperature
  • Satellite Maps
  • Weather Map
  • News
  • Weather Widgets
  • user-avatar
    Login

    Hourly Weather Mazarron

    Today, 23 January, Wednesday

    Time Temperature Precipitation Wind Pressure Humidity
    00:00 +8°C° 0 mm 4 mps 742 mmHg 60%
    01:00 +8°C° 0 mm 4 mps 742 mmHg 61%
    02:00 +8°C° 0 mm 5 mps 741 mmHg 62%
    03:00 +8°C° 0 mm 6 mps 741 mmHg 64%
    04:00 +8°C° 0 mm 6 mps 741 mmHg 63%
    05:00 +8°C° 0 mm 7 mps 741 mmHg 62%
    06:00 +9°C° 0 mm 7 mps 740 mmHg 62%
    07:00 +9°C° 0 mm 7 mps 740 mmHg 61%
    08:00 +10°C° 0 mm 7 mps 740 mmHg 59%
    09:00 +11°C° 0 mm 6 mps 740 mmHg 57%
    10:00 +12°C° 0 mm 7 mps 740 mmHg 51%
    11:00 +15°C° 0 mm 8 mps 740 mmHg 45%
    12:00 +17°C° 0 mm 9 mps 740 mmHg 39%
    13:00 +17°C° 0 mm 9 mps 739 mmHg 40%
    14:00 +17°C° 0 mm 10 mps 739 mmHg 41%
    15:00 +17°C° 0 mm 10 mps 738 mmHg 42%
    16:00 +16°C° 0 mm 8 mps 738 mmHg 47%
    17:00 +14°C° 0 mm 7 mps 738 mmHg 53%
    18:00 +13°C° 0 mm 5 mps 738 mmHg 58%
    19:00 +13°C° 0 mm 5 mps 739 mmHg 60%
    20:00 +12°C° 0 mm 5 mps 739 mmHg 61%
    21:00 +12°C° 0 mm 5 mps 739 mmHg 63%
    22:00 +12°C° 0 mm 5 mps 739 mmHg 64%
    23:00 +11°C° 0 mm 6 mps 740 mmHg 64%

    Tomorrow, 24 January, Thursday

    Time Temperature Precipitation Wind Pressure Humidity
    00:00 +11°C° 0 mm 6 mps 740 mmHg 65%
    01:00 +10°C° 0 mm 6 mps 740 mmHg 66%
    02:00 +10°C° 0 mm 6 mps 740 mmHg 67%
    03:00 +10°C° 0 mm 5 mps 739 mmHg 67%
    04:00 +10°C° 0 mm 5 mps 739 mmHg 68%
    05:00 +9°C° 0 mm 5 mps 739 mmHg 69%
    06:00 +9°C° 0 mm 5 mps 739 mmHg 69%
    07:00 +10°C° 0 mm 5 mps 740 mmHg 66%
    08:00 +12°C° 0 mm 5 mps 740 mmHg 62%
    09:00 +13°C° 0 mm 5 mps 740 mmHg 59%
    10:00 +14°C° 0 mm 7 mps 741 mmHg 53%
    11:00 +16°C° 0 mm 8 mps 741 mmHg 47%
    12:00 +17°C° 0 mm 9 mps 741 mmHg 41%
    13:00 +17°C° 0 mm 9 mps 741 mmHg 42%
    14:00 +17°C° 0 mm 9 mps 741 mmHg 42%
    15:00 +17°C° 0 mm 9 mps 741 mmHg 42%
    16:00 +16°C° 0 mm 8 mps 741 mmHg 45%
    17:00 +16°C° 0 mm 6 mps 742 mmHg 47%
    18:00 +15°C° 0 mm 5 mps 742 mmHg 50%
    19:00 +14°C° 0 mm 4 mps 742 mmHg 55%
    20:00 +13°C° 0 mm 3 mps 743 mmHg 60%
    21:00 +13°C° 0 mm 2 mps 743 mmHg 64%
    22:00 +12°C° 0 mm 3 mps 743 mmHg 65%
    23:00 +12°C° 0 mm 4 mps 744 mmHg 65%

    Day after tomorrow, 25 January, Friday

    Time Temperature Precipitation Wind Pressure Humidity
    00:00 +12°C° 0 mm 5 mps 744 mmHg 65%
    01:00 +10°C° 0 mm 5 mps 744 mmHg 64%
    02:00 +10°C° 0 mm 5 mps 744 mmHg 62%
    03:00 +10°C° 0 mm 6 mps 744 mmHg 61%
    04:00 +10°C° 0 mm 6 mps 745 mmHg 62%
    05:00 +10°C° 0 mm 6 mps 745 mmHg 62%
    06:00 +9°C° 0 mm 6 mps 745 mmHg 62%
    07:00 +10°C° 0 mm 6 mps 745 mmHg 60%
    08:00 +11°C° 0 mm 6 mps 746 mmHg 57%
    09:00 +12°C° 0 mm 7 mps 746 mmHg 55%
    10:00 +15°C° 0 mm 7 mps 747 mmHg 49%
    11:00 +16°C° 0 mm 8 mps 747 mmHg 44%
    12:00 +17°C° 0 mm 8 mps 747 mmHg 38%
    13:00 +18°C° 0 mm 8 mps 747 mmHg 37%
    14:00 +18°C° 0 mm 7 mps 746 mmHg 36%
    15:00 +20°C° 0 mm 6 mps 746 mmHg 35%
    16:00 +17°C° 0 mm 6 mps 746 mmHg 39%
    17:00 +16°C° 0 mm 5 mps 746 mmHg 43%
    18:00 +15°C° 0 mm 5 mps 746 mmHg 47%
    19:00 +14°C° 0 mm 5 mps 746 mmHg 49%
    20:00 +13°C° 0 mm 5 mps 747 mmHg 51%
    21:00 +13°C° 0 mm 5 mps 747 mmHg 53%
    22:00 +12°C° 0 mm 5 mps 747 mmHg 54%
    23:00 +12°C° 0 mm 5 mps 747 mmHg 54%

    26 January, Saturday

    Time Temperature Precipitation Wind Pressure Humidity
    00:00 +12°C° 0 mm 5 mps 747 mmHg 55%
    01:00 +10°C° 0 mm 5 mps 747 mmHg 56%
    02:00 +10°C° 0 mm 5 mps 747 mmHg 57%
    03:00 +9°C° 0 mm 5 mps 747 mmHg 59%
    04:00 +10°C° 0 mm 4 mps 747 mmHg 60%
    05:00 +10°C° 0 mm 4 mps 747 mmHg 61%
    06:00 +8°C° 0 mm 4 mps 748 mmHg 62%
    07:00 +10°C° 0 mm 4 mps 748 mmHg 59%
    08:00 +11°C° 0 mm 3 mps 748 mmHg 57%
    09:00 +12°C° 0 mm 3 mps 749 mmHg 54%
    10:00 +14°C° 0 mm 2 mps 749 mmHg 50%
    11:00 +15°C° 0 mm 1 mps 749 mmHg 45%
    12:00 +18°C° 0 mm 1 mps 748 mmHg 40%
    13:00 +17°C° 0 mm 2 mps 748 mmHg 40%
    14:00 +17°C° 0 mm 2 mps 747 mmHg 41%
    15:00 +17°C° 0 mm 3 mps 747 mmHg 41%
    16:00 +16°C° 0 mm 3 mps 746 mmHg 50%
    17:00 +13°C° 0 mm 3 mps 746 mmHg 59%
    18:00 +11°C° 0 mm 3 mps 746 mmHg 68%
    19:00 +11°C° 0 mm 3 mps 746 mmHg 71%
    20:00 +11°C° 0 mm 3 mps 746 mmHg 74%
    21:00 +10°C° 0 mm 3 mps 746 mmHg 77%
    22:00 +10°C° 0 mm 2 mps 746 mmHg 77%
    23:00 +10°C° 0 mm 2 mps 746 mmHg 77%

    27 January, Sunday

    Time Temperature Precipitation Wind Pressure Humidity
    00:00 +9°C° 0 mm 2 mps 745 mmHg 77%
    01:00 +9°C° 0 mm 2 mps 745 mmHg 75%
    02:00 +10°C° 0 mm 1 mps 745 mmHg 73%
    03:00 +9°C° 0 mm 1 mps 744 mmHg 71%
    04:00 +9°C° 0 mm 1 mps 744 mmHg 69%
    05:00 +9°C° 0 mm 1 mps 744 mmHg 66%
    06:00 +9°C° 0 mm 1 mps 744 mmHg 64%
    07:00 +9°C° 0 mm 2 mps 744 mmHg 58%
    08:00 +12°C° 0 mm 2 mps 744 mmHg 51%
    09:00 +13°C° 0 mm 2 mps 744 mmHg 45%
    10:00 +14°C° 0 mm 3 mps 744 mmHg 42%
    11:00 +15°C° 0 mm 4 mps 744 mmHg 39%
    12:00 +16°C° 0 mm 5 mps 744 mmHg 37%
    13:00 +16°C° 0 mm 7 mps 744 mmHg 37%
    14:00 +16°C° 0 mm 8 mps 744 mmHg 37%
    15:00 +16°C° 0 mm 10 mps 743 mmHg 37%
    16:00 +14°C° 0 mm 10 mps 744 mmHg 36%
    17:00 +12°C° 0 mm 10 mps 744 mmHg 35%
    18:00 +11°C° 0 mm 10 mps 744 mmHg 35%
    19:00 +10°C° 0 mm 9 mps 745 mmHg 37%
    20:00 +10°C° 0 mm 9 mps 746 mmHg 38%
    21:00 +8°C° 0 mm 9 mps 746 mmHg 40%
    22:00 +7°C° 0 mm 8 mps 746 mmHg 40%
    23:00 +6°C° 0 mm 8 mps 747 mmHg 39%

    28 January, Monday

    Time Temperature Precipitation Wind Pressure Humidity
    00:00 +5°C° 0 mm 7 mps 747 mmHg 39%
    01:00 +5°C° 0 mm 7 mps 746 mmHg 38%
    02:00 +4°C° 0 mm 7 mps 746 mmHg 38%
    03:00 +4°C° 0 mm 7 mps 746 mmHg 37%
    04:00 +4°C° 0 mm 7 mps 746 mmHg 39%
    05:00 +4°C° 0 mm 7 mps 746 mmHg 41%
    06:00 +4°C° 0 mm 7 mps 746 mmHg 44%
    07:00 +5°C° 0 mm 7 mps 746 mmHg 41%
    08:00 +6°C° 0 mm 7 mps 746 mmHg 38%
    09:00 +8°C° 0 mm 7 mps 746 mmHg 35%
    10:00 +9°C° 0 mm 7 mps 746 mmHg 32%
    11:00 +11°C° 0 mm 7 mps 746 mmHg 30%
    12:00 +14°C° 0 mm 7 mps 745 mmHg 27%
    13:00 +13°C° 0 mm 8 mps 745 mmHg 27%
    14:00 +13°C° 0 mm 8 mps 744 mmHg 28%
    15:00 +13°C° 0 mm 9 mps 744 mmHg 28%
    16:00 +12°C° 0 mm 8 mps 744 mmHg 33%
    17:00 +11°C° 0 mm 8 mps 744 mmHg 38%
    18:00 +9°C° 0 mm 7 mps 744 mmHg 43%
    19:00 +9°C° 0 mm 7 mps 745 mmHg 47%
    20:00 +9°C° 0 mm 7 mps 745 mmHg 51%
    21:00 +8°C° 0 mm 6 mps 745 mmHg 54%
    22:00 +8°C° 0 mm 7 mps 746 mmHg 56%
    23:00 +8°C° 0 mm 7 mps 746 mmHg 58%
    Show more